Back to catalog

FREGAT R/B

AliveHEO
NORAD 43688·ROCKET BODY·🇷🇺 Russia

Launched Nov 3, 2018 from Plesetsk Cosmodrome

Loading…

Next Passes (next 24 hours)

TLE

FreshSource: Space-Track

Epoch: Sep 13, 2026, 12:12 UTC

1 43688U 18086B   26256.50881517  .00000016  00000-0  00000-0 0  9995
2 43688  64.2169 193.8094 0063434 130.5487 229.9986  2.08703164 59663

Track FREGAT R/B in real time with AllMySat

Download on the App Store